"Period start","avg(HW err(1)/warn(2) (#))","avg(Visibility (m))","avg(Weather code (#))","avg(Precip intensity (mm/h))","min(HW err(1)/warn(2) (#))","max(HW err(1)/warn(2) (#))","std(HW err(1)/warn(2) (#))","med(HW err(1)/warn(2) (#))","min(Visibility (m))","max(Visibility (m))","std(Visibility (m))","med(Visibility (m))","min(Weather code (#))","max(Weather code (#))","std(Weather code (#))","med(Weather code (#))","min(Precip intensity (mm/h))","max(Precip intensity (mm/h))","std(Precip intensity (mm/h))","med(Precip intensity (mm/h))"
2014-03-22 00:00:00,2,37249,0,0.00,2,2,0,2,28681,45832,5963,38158,0,0,0,0,0.00,0.00,0.00,0.00
2014-03-22 00:10:00,2,43582,0,0.00,2,2,0,2,30924,50000,7208,47258,0,0,0,0,0.00,0.00,0.00,0.00
2014-03-22 00:20:00,2,40427,0,0.00,2,2,0,2,30874,48488,6019,41720,0,0,0,0,0.00,0.00,0.00,0.00
2014-03-22 00:30:00,2,31870,0,0.00,2,2,0,2,26631,38717,3698,31368,0,0,0,0,0.00,0.00,0.00,0.00
2014-03-22 00:40:00,2,35953,0,0.00,2,2,0,2,32285,40504,3265,34193,0,0,0,0,0.00,0.00,0.00,0.00
2014-03-22 00:50:00,2,41904,0,0.00,2,2,0,2,33202,50000,5664,42022,0,0,0,0,0.00,0.00,0.00,0.00
2014-03-22 01:00:00,2,41675,0,0.00,2,2,0,2,35667,50000,4016,41966,0,0,0,0,0.00,0.00,0.00,0.00
2014-03-22 01:10:00,2,40868,0,0.00,2,2,0,2,31316,47893,5850,40672,0,0,0,0,0.00,0.00,0.00,0.00
2014-03-22 01:20:00,2,43578,0,0.00,2,2,0,2,36570,50000,4871,42382,0,0,0,0,0.00,0.00,0.00,0.00
2014-03-22 01:30:00,2,41428,0,0.00,2,2,0,2,36528,46169,2471,41005,0,0,0,0,0.00,0.00,0.00,0.00
2014-03-22 01:40:00,2,32154,0,0.00,2,2,0,2,25938,37381,3558,33114,0,0,0,0,0.00,0.00,0.00,0.00
2014-03-22 01:50:00,2,6738,65,1.85,2,2,0,2,1838,24712,6409,4745,40,71,12,71,0.10,4.15,1.37,1.18
2014-03-22 02:00:00,1,,,,1,1,0,1,,,,,,,,,,,,
2014-03-22 02:10:00,1,,,,1,1,0,1,,,,,,,,,,,,
2014-03-22 02:20:00,1,,,,1,1,0,1,,,,,,,,,,,,
2014-03-22 02:30:00,1,,,,1,1,0,1,,,,,,,,,,,,
2014-03-22 02:40:00,1,,,,1,1,0,1,,,,,,,,,,,,
2014-03-22 02:50:00,1,,,,1,1,0,1,,,,,,,,,,,,
2014-03-22 03:00:00,1,,,,1,1,0,1,,,,,,,,,,,,
2014-03-22 03:10:00,1,,,,1,1,0,1,,,,,,,,,,,,
2014-03-22 03:20:00,1,,,,1,1,0,1,,,,,,,,,,,,
2014-03-22 03:30:00,1,,,,1,1,0,1,,,,,,,,,,,,
2014-03-22 03:40:00,1,,,,1,1,0,1,,,,,,,,,,,,
2014-03-22 03:50:00,1,,,,1,1,0,1,,,,,,,,,,,,
2014-03-22 04:00:00,1,,,,1,1,0,1,,,,,,,,,,,,
2014-03-22 04:10:00,1,,,,1,1,0,1,,,,,,,,,,,,
2014-03-22 04:20:00,1,,,,1,1,0,1,,,,,,,,,,,,
2014-03-22 04:30:00,1,,,,1,1,0,1,,,,,,,,,,,,
2014-03-22 04:40:00,1,,,,1,1,0,1,,,,,,,,,,,,
2014-03-22 04:50:00,1,,,,1,1,0,1,,,,,,,,,,,,
2014-03-22 05:00:00,1,,,,1,1,0,1,,,,,,,,,,,,
2014-03-22 05:10:00,1,,,,1,1,0,1,,,,,,,,,,,,
2014-03-22 05:20:00,1,,,,1,1,0,1,,,,,,,,,,,,
2014-03-22 05:30:00,1,,,,1,1,0,1,,,,,,,,,,,,
2014-03-22 05:40:00,1,,,,1,1,0,1,,,,,,,,,,,,
2014-03-22 05:50:00,1,,,,1,1,0,1,,,,,,,,,,,,
2014-03-22 06:00:00,1,,,,1,1,0,1,,,,,,,,,,,,
2014-03-22 06:10:00,1,,,,1,1,0,1,,,,,,,,,,,,
2014-03-22 06:20:00,1,,,,1,1,0,1,,,,,,,,,,,,
2014-03-22 06:30:00,1,,,,1,1,0,1,,,,,,,,,,,,
2014-03-22 06:40:00,1,,,,1,1,0,1,,,,,,,,,,,,
2014-03-22 06:50:00,1,,,,1,1,0,1,,,,,,,,,,,,
2014-03-22 07:00:00,1,,,,1,1,0,1,,,,,,,,,,,,
2014-03-22 07:10:00,1,,,,1,1,0,1,,,,,,,,,,,,
2014-03-22 07:20:00,1,,,,1,1,0,1,,,,,,,,,,,,
2014-03-22 07:30:00,1,,,,1,1,0,1,,,,,,,,,,,,
2014-03-22 07:40:00,1,,,,1,1,0,1,,,,,,,,,,,,
2014-03-22 07:50:00,1,,,,1,1,0,1,,,,,,,,,,,,
2014-03-22 08:00:00,1,,,,1,1,0,1,,,,,,,,,,,,
2014-03-22 08:10:00,1,,,,1,1,0,1,,,,,,,,,,,,
2014-03-22 08:20:00,1,,,,1,1,0,1,,,,,,,,,,,,
2014-03-22 08:30:00,1,,,,1,1,0,1,,,,,,,,,,,,
2014-03-22 08:40:00,1,,,,1,1,0,1,,,,,,,,,,,,
2014-03-22 08:50:00,1,,,,1,1,0,1,,,,,,,,,,,,
2014-03-22 09:00:00,1,,,,1,1,0,1,,,,,,,,,,,,
2014-03-22 09:10:00,1,,,,1,1,0,1,,,,,,,,,,,,
2014-03-22 09:20:00,1,,,,1,1,0,1,,,,,,,,,,,,
2014-03-22 09:30:00,1,,,,1,1,0,1,,,,,,,,,,,,
2014-03-22 09:40:00,1,,,,1,1,0,1,,,,,,,,,,,,
2014-03-22 09:50:00,1,,,,1,1,0,1,,,,,,,,,,,,
2014-03-22 10:00:00,1,,,,1,1,0,1,,,,,,,,,,,,
2014-03-22 10:10:00,2,30309,75,0.00,1,2,0,2,23371,35857,3796,30649,71,77,3,77,0.00,0.00,0.00,0.00
2014-03-22 10:20:00,2,44972,15,0.00,2,2,0,2,38395,50000,3338,45740,0,77,31,0,0.00,0.00,0.00,0.00
2014-03-22 10:30:00,2,39942,0,0.00,2,2,0,2,7262,50000,13998,45794,0,0,0,0,0.00,0.00,0.00,0.00
2014-03-22 10:40:00,2,41979,0,0.00,2,2,0,2,32209,47988,4383,42655,0,0,0,0,0.00,0.00,0.00,0.00
2014-03-22 10:50:00,2,44137,0,0.00,2,2,0,2,37779,50000,3661,43650,0,0,0,0,0.00,0.00,0.00,0.00
2014-03-22 11:00:00,2,42228,0,0.00,2,2,0,2,38143,44561,1946,42796,0,0,0,0,0.00,0.00,0.00,0.00
2014-03-22 11:10:00,2,41615,0,0.00,2,2,0,2,37921,46802,2671,41412,0,0,0,0,0.00,0.00,0.00,0.00
2014-03-22 11:20:00,2,44906,0,0.00,2,2,0,2,39095,50000,3495,44454,0,0,0,0,0.00,0.00,0.00,0.00
2014-03-22 11:30:00,2,45920,0,0.00,2,2,0,2,39356,50000,3402,45508,0,0,0,0,0.00,0.00,0.00,0.00
2014-03-22 11:40:00,2,41288,0,0.00,2,2,0,2,34104,50000,4627,39801,0,0,0,0,0.00,0.00,0.00,0.00
2014-03-22 11:50:00,2,45488,0,0.00,2,2,0,2,36927,50000,3553,46158,0,0,0,0,0.00,0.00,0.00,0.00
2014-03-22 12:00:00,2,47262,0,0.00,2,2,0,2,43298,50000,2369,47355,0,0,0,0,0.00,0.00,0.00,0.00
2014-03-22 12:10:00,2,47846,0,0.00,2,2,0,2,40748,50000,3142,50000,0,0,0,0,0.00,0.00,0.00,0.00
2014-03-22 12:20:00,2,47278,0,0.00,2,2,0,2,43558,50000,2273,47661,0,0,0,0,0.00,0.00,0.00,0.00
2014-03-22 12:30:00,2,46745,0,0.00,2,2,0,2,42133,50000,2710,46158,0,0,0,0,0.00,0.00,0.00,0.00
2014-03-22 12:40:00,2,47495,0,0.00,2,2,0,2,40337,50000,3068,48866,0,0,0,0,0.00,0.00,0.00,0.00
2014-03-22 12:50:00,2,46685,0,0.00,2,2,0,2,41495,50000,2888,47834,0,0,0,0,0.00,0.00,0.00,0.00
2014-03-22 13:00:00,2,47224,0,0.00,2,2,0,2,43062,50000,2436,47247,0,0,0,0,0.00,0.00,0.00,0.00
2014-03-22 13:10:00,2,46672,0,0.00,2,2,0,2,42024,50000,2776,47597,0,0,0,0,0.00,0.00,0.00,0.00
2014-03-22 13:20:00,2,46894,0,0.00,2,2,0,2,42893,50000,2382,46488,0,0,0,0,0.00,0.00,0.00,0.00
2014-03-22 13:30:00,2,46767,0,0.00,2,2,0,2,41954,49584,2592,47248,0,0,0,0,0.00,0.00,0.00,0.00
2014-03-22 13:40:00,2,45259,0,0.00,2,2,0,2,39397,50000,3548,45488,0,0,0,0,0.00,0.00,0.00,0.00
2014-03-22 13:50:00,2,46718,0,0.00,2,2,0,2,41207,50000,3080,46581,0,0,0,0,0.00,0.00,0.00,0.00
2014-03-22 14:00:00,2,47934,0,0.00,2,2,0,2,45139,50000,1853,47570,0,0,0,0,0.00,0.00,0.00,0.00
2014-03-22 14:10:00,2,48019,0,0.00,2,2,0,2,42811,50000,2518,49624,0,0,0,0,0.00,0.00,0.00,0.00
2014-03-22 14:20:00,2,48002,0,0.00,2,2,0,2,43539,50000,2405,49678,0,0,0,0,0.00,0.00,0.00,0.00
2014-03-22 14:30:00,2,49120,0,0.00,2,2,0,2,47436,50000,865,49324,0,0,0,0,0.00,0.00,0.00,0.00
2014-03-22 14:40:00,2,49665,0,0.00,2,2,0,2,48976,50000,370,49806,0,0,0,0,0.00,0.00,0.00,0.00
2014-03-22 14:50:00,2,44530,0,0.00,2,2,0,2,33257,50000,5275,46037,0,0,0,0,0.00,0.00,0.00,0.00
2014-03-22 15:00:00,2,48493,0,0.00,2,2,0,2,44252,50000,2156,49781,0,0,0,0,0.00,0.00,0.00,0.00
2014-03-22 15:10:00,2,48288,0,0.00,2,2,0,2,45648,50000,1617,49253,0,0,0,0,0.00,0.00,0.00,0.00
2014-03-22 15:20:00,2,48907,0,0.00,2,2,0,2,45103,50000,1663,49708,0,0,0,0,0.00,0.00,0.00,0.00
2014-03-22 15:30:00,2,49103,0,0.00,2,2,0,2,46262,50000,1192,49719,0,0,0,0,0.00,0.00,0.00,0.00
2014-03-22 15:40:00,2,46266,0,0.00,2,2,0,2,39438,50000,3190,45900,0,0,0,0,0.00,0.00,0.00,0.00
2014-03-22 15:50:00,2,48114,0,0.00,2,2,0,2,45297,50000,1433,47976,0,0,0,0,0.00,0.00,0.00,0.00
2014-03-22 16:00:00,2,46475,0,0.00,2,2,0,2,40265,50000,3882,48411,0,0,0,0,0.00,0.00,0.00,0.00
2014-03-22 16:10:00,2,48900,0,0.00,2,2,0,2,45278,50000,1738,49809,0,0,0,0,0.00,0.00,0.00,0.00
2014-03-22 16:20:00,2,48994,0,0.00,2,2,0,2,47283,50000,1004,49409,0,0,0,0,0.00,0.00,0.00,0.00
2014-03-22 16:30:00,2,49783,0,0.00,2,2,0,2,48989,50000,393,50000,0,0,0,0,0.00,0.00,0.00,0.00
2014-03-22 16:40:00,2,49647,0,0.00,2,2,0,2,48272,50000,529,49990,0,0,0,0,0.00,0.00,0.00,0.00
2014-03-22 16:50:00,2,47201,0,0.00,2,2,0,2,42912,50000,2670,47622,0,0,0,0,0.00,0.00,0.00,0.00
2014-03-22 17:00:00,2,49258,0,0.00,2,2,0,2,46614,50000,1106,50000,0,0,0,0,0.00,0.00,0.00,0.00
2014-03-22 17:10:00,2,47590,0,0.00,2,2,0,2,39973,50000,2968,48376,0,0,0,0,0.00,0.00,0.00,0.00
2014-03-22 17:20:00,2,47937,0,0.00,2,2,0,2,39251,50000,3135,49324,0,0,0,0,0.00,0.00,0.00,0.00
2014-03-22 17:30:00,2,48597,0,0.00,2,2,0,2,45284,50000,1536,49010,0,0,0,0,0.00,0.00,0.00,0.00
2014-03-22 17:40:00,2,47954,0,0.00,2,2,0,2,41215,50000,2711,49264,0,0,0,0,0.00,0.00,0.00,0.00
2014-03-22 17:50:00,2,48865,0,0.00,2,2,0,2,45502,50000,1481,49796,0,0,0,0,0.00,0.00,0.00,0.00
2014-03-22 18:00:00,2,49434,0,0.00,2,2,0,2,48446,50000,617,49651,0,0,0,0,0.00,0.00,0.00,0.00
2014-03-22 18:10:00,2,48549,0,0.00,2,2,0,2,41900,50000,2751,50000,0,0,0,0,0.00,0.00,0.00,0.00
2014-03-22 18:20:00,2,45729,0,0.00,2,2,0,2,39547,50000,3062,46283,0,0,0,0,0.00,0.00,0.00,0.00
2014-03-22 18:30:00,2,47501,0,0.00,2,2,0,2,43283,50000,2200,47869,0,0,0,0,0.00,0.00,0.00,0.00
2014-03-22 18:40:00,2,48153,0,0.00,2,2,0,2,43908,50000,2090,49050,0,0,0,0,0.00,0.00,0.00,0.00
2014-03-22 18:50:00,2,47417,0,0.00,2,2,0,2,42868,50000,2758,48100,0,0,0,0,0.00,0.00,0.00,0.00
2014-03-22 19:00:00,2,46253,0,0.00,2,2,0,2,39541,50000,3111,47501,0,0,0,0,0.00,0.00,0.00,0.00
2014-03-22 19:10:00,2,43418,0,0.00,2,2,0,2,38369,47419,3122,44001,0,0,0,0,0.00,0.00,0.00,0.00
2014-03-22 19:20:00,2,43728,0,0.00,2,2,0,2,36430,50000,4212,43792,0,0,0,0,0.00,0.00,0.00,0.00
2014-03-22 19:30:00,2,40658,0,0.00,2,2,0,2,33490,46092,3804,40782,0,0,0,0,0.00,0.00,0.00,0.00
2014-03-22 19:40:00,2,45364,0,0.00,2,2,0,2,38270,50000,4024,45741,0,0,0,0,0.00,0.00,0.00,0.00
2014-03-22 19:50:00,2,49311,0,0.00,2,2,0,2,46025,50000,1398,50000,0,0,0,0,0.00,0.00,0.00,0.00
2014-03-22 20:00:00,2,48643,0,0.00,2,2,0,2,43728,50000,1767,49260,0,0,0,0,0.00,0.00,0.00,0.00
2014-03-22 20:10:00,2,48994,0,0.00,2,2,0,2,44305,50000,1795,50000,0,0,0,0,0.00,0.00,0.00,0.00
2014-03-22 20:20:00,2,49680,0,0.00,2,2,0,2,48424,50000,529,50000,0,0,0,0,0.00,0.00,0.00,0.00
2014-03-22 20:30:00,2,48230,0,0.00,2,2,0,2,44177,50000,1904,48564,0,0,0,0,0.00,0.00,0.00,0.00
2014-03-22 20:40:00,2,48251,0,0.00,2,2,0,2,45488,50000,1522,48780,0,0,0,0,0.00,0.00,0.00,0.00
2014-03-22 20:50:00,2,47670,0,0.00,2,2,0,2,43074,50000,2886,49846,0,0,0,0,0.00,0.00,0.00,0.00
2014-03-22 21:00:00,2,48689,0,0.00,2,2,0,2,45843,50000,1579,49489,0,0,0,0,0.00,0.00,0.00,0.00
2014-03-22 21:10:00,2,48575,0,0.00,2,2,0,2,45949,50000,1502,49048,0,0,0,0,0.00,0.00,0.00,0.00
2014-03-22 21:20:00,2,44699,0,0.00,2,2,0,2,38547,49918,3963,45662,0,0,0,0,0.00,0.00,0.00,0.00
2014-03-22 21:30:00,2,48568,0,0.00,2,2,0,2,41782,50000,2339,49324,0,0,0,0,0.00,0.00,0.00,0.00
2014-03-22 21:40:00,2,49562,0,0.00,2,2,0,2,46892,50000,911,49999,0,0,0,0,0.00,0.00,0.00,0.00
2014-03-22 21:50:00,2,47948,0,0.00,2,2,0,2,44302,50000,2259,48929,0,0,0,0,0.00,0.00,0.00,0.00
2014-03-22 22:00:00,2,48656,0,0.00,2,2,0,2,43695,50000,2232,50000,0,0,0,0,0.00,0.00,0.00,0.00
2014-03-22 22:10:00,2,49413,0,0.00,2,2,0,2,46123,50000,1248,50000,0,0,0,0,0.00,0.00,0.00,0.00
2014-03-22 22:20:00,2,45675,0,0.00,2,2,0,2,40151,49647,3446,46141,0,0,0,0,0.00,0.00,0.00,0.00
2014-03-22 22:30:00,2,48962,0,0.00,2,2,0,2,45944,50000,1510,50000,0,0,0,0,0.00,0.00,0.00,0.00
2014-03-22 22:40:00,2,48655,0,0.00,2,2,0,2,44220,50000,2040,49740,0,0,0,0,0.00,0.00,0.00,0.00
2014-03-22 22:50:00,2,49275,0,0.00,2,2,0,2,47618,50000,945,50000,0,0,0,0,0.00,0.00,0.00,0.00
2014-03-22 23:00:00,2,45777,0,0.00,2,2,0,2,43495,50000,2029,45179,0,0,0,0,0.00,0.00,0.00,0.00
2014-03-22 23:10:00,2,44256,0,0.00,2,2,0,2,31633,50000,6560,47559,0,0,0,0,0.00,0.00,0.00,0.00
2014-03-22 23:20:00,2,47587,0,0.00,2,2,0,2,41622,50000,3248,49580,0,0,0,0,0.00,0.00,0.00,0.00
2014-03-22 23:30:00,2,41233,0,0.00,2,2,0,2,34376,48041,4604,40684,0,0,0,0,0.00,0.00,0.00,0.00
2014-03-22 23:40:00,2,44856,0,0.00,2,2,0,2,38178,50000,4287,43790,0,0,0,0,0.00,0.00,0.00,0.00
2014-03-22 23:50:00,2,42038,0,0.00,2,2,0,2,34715,46984,3618,42060,0,0,0,0,0.00,0.00,0.00,0.00
